Location: Academy at Carrie F Thomas
(32.8490°N, 97.2053°W)
Time: 06:12:17
(UTC+00:00)

Cosmos 1515 Rocket - Pass Details

Date: 26 June 2022
Orbit: 604 x 630 km, 82.5° (Epoch: 14 August)

Event Time Altitude Azimuth Distance (km) Brightness Sun altitude
Rises 09:51:04 0° 2° (N) 2,904 7.7 -16.4°
Reaches altitude 10° 09:53:25 10° 10° (N) 1,989 6.9 -16.0°
Maximum altitude 09:57:35 41° 81° (E) 900 4.8 -15.4°
Drops below altitude 10° 10:01:41 10° 151° (SSE) 1,962 6.0 -14.8°
Sets 10:03:59 0° 159° (SSE) 2,858 6.8 -14.4°
